Weather Roundup
Issued by NWS Chicago, IL

Home | Current Version | Previous Version | Text Only | Print | Product List | Glossary On
Versions: 1 2 3 4 5 6 7 8 9 10 11 12 13 14 15 16 17 18 19 20 21 22 23 24 25 26 27 28 29 30 31 32 33 34 35 36 37 38 39 40 41 42 43 44 45 46 47 48 49 50
000
NZUS59 KLOT 011506
HRRLOT

CHICAGO AREA WEATHER ROUNDUP
NATIONAL WEATHER SERVICE CHICAGO/ROMEOVILLE IL
1000 AM CDT MON SEP 01 2014

NOTE: "FAIR" INDICATES FEW OR NO CLOUDS BELOW 12,000 FEET WITH NO
SIGNIFICANT WEATHER AND/OR OBSTRUCTIONS TO VISIBILITY.

* THESE STATIONS ARE NOT UNDER NWS QUALITY CONTROL. THEY ALSO MAY NOT
  REPORT WEATHER SUCH AS PRECIPITATION OR FOG.

ILZ005-006-012>014-019>023-011600-
NORTHEAST ILLINOIS

CITY           SKY/WX    TMP DP  RH WIND       PRES   REMARKS
OHARE          CLOUDY    77  68  73 SW15      29.75R
MIDWAY         CLOUDY    78  72  81 SW16G25   29.75R HX  80
AURORA         LGT RAIN  75  70  84 SW9       29.78R
LANSING*         N/A    N/A N/A N/A MISG        N/A
JOLIET*        CLOUDY    75  69  80 S9G16     29.78R
WAUKEGAN       CLOUDY    75  69  81 SW10G17   29.75R
DUPAGE AIRPORT LGT RAIN  75  70  84 SW16G23   29.77R
WHEELING       PTSUNNY   78  70  76 SW17G24   29.76R HX  80
KANKAKEE*      CLOUDY    76  72  88 S15G24    29.79S
MORRIS*        CLOUDY    76  73  88 SW10G16   29.77R
LEWIS AIRPORT* CLOUDY    75  71  87 SW14G20   29.78R
NORTHERLY IS     N/A     76  69  79 SW16        N/A
$$

WIZ051-052-058>065-066-070>072-011600-
SOUTHEAST WISCONSIN

CITY           SKY/WX    TMP DP  RH WIND       PRES   REMARKS
MILWAUKEE      LGT RAIN  74  69  85 SW13      29.74R
KENOSHA*       CLOUDY    74  70  87 SW12      29.75R
RACINE*        PTSUNNY   75  69  81 SW13G21   29.75R
BURLINGTON     DRIZZLE   70  68  93 S13G18    29.74R
WAUKESHA       LGT RAIN  70  68  94 SW7       29.74R FOG
WEST BEND      CLOUDY    70  68  94 S3        29.71F
$$

INZ001>003-010>013-019-020-011600-
NORTHWEST INDIANA

CITY           SKY/WX    TMP DP  RH WIND       PRES   REMARKS
GARY*          CLOUDY    77  72  83 S12G23    29.77F FOG
MICHIGAN CITY* NOT AVBL
RENSSELAER*    NOT AVBL
VALPARAISO     CLOUDY    74  71  91 S14G23    29.80F
$$

LMZ740>746-011600-
SOUTHERN LAKE MICHIGAN

STATION/POSITION TIME  SKY/WX   TEMP WIND        PRES    VSBY
                                AIR  DIR/SP/G
                 (UTC)          (F)  (DEG/KT/KT) (MB)    (MI)
HARRISON CRIB    1500            75  200/ 26/ 30   N/A
BURNHAM HARBOR   1500            76  170/ 11/ 18   N/A
CALUMET HARBOR   1500            76  200/  8/ 14 1006.5R
BURNS HARBOR     NOT AVBL
MICHIGAN CITY    1500            74  160/ 16/ 21   N/A
$$

ABBREVIATIONS USED IN REMARKS
   TC - TEMPERATURE IN CELSIUS
  WCI - WIND CHILL INDEX
   HX - HEAT INDEX
  VSB - VISIBILITY
$$


USA.gov is the U.S. government's official web portal to all federal, state and local government web resources and services.